KUIPER-00380

导读

KUIPER-00380(NORAD编号68920)是亚马逊柯伊伯(Project Kuiper)星座计划中的一颗低地球轨道宽带互联网卫星。该项目计划部署3236颗卫星,旨在实现全球高速互联网覆盖,直接竞争SpaceX的Starlink星座。作为批量发射的运营卫星之一,KUIPER-00380运行在近地轨道,通过红外激光链路实现卫星间互连,可支持高速数据传输。该卫星的成功入轨,助力亚马逊在2026年前完成过半卫星部署目标,推动全球卫星互联网服务的商业化进程。

Basic Information
目录编号:
68920
目录名称:
KUIPER-00380
国际标识:
2026-098B
轨道中心:
EARTH
卫星名称:
KUIPER-00380
卫星全名:
KUIPER-00380
卫星状态:
在轨 (已飞行128 天)
发射日期:
2026-04-30 UTC
国别 :
美国 (US)
星等 :
--
Orbit Information
数据来源 国际轨道数据 AOE轨道数据
星历时间 2026-09-04T19:00:17+0800
1天前
查看轨道信息
2026-09-02T16:00:00+0800
3天前
查看轨道信息
半长轴 7007.681km 7007.691km
偏心率 0.0000574 0.0000499
轨道倾角 51.897° 51.898°
近地点辐角 63.625° 69.382°
升交点赤经 60.126° 69.526°
平近点角 296.477° 121.296°
近地点 629.141km 629.204km
远地点 629.947km 629.904km
周期 97.302分钟 97.302分钟
每日圈数 14.799306 14.799272
Detailed Information
使用方式:
暂无
2D Orbit Map
3D Orbit Map
Orbit Altitude Analysis Chart
Orbit Inclination Analysis Chart
Orbit Comprehensive Analysis Chart
View Comprehensive Chart
Conjunction Data List
Event ID Objects TCA Miss Dist (km) Collision Risk Probability Collision Risk Index (CRI) Action
CDM_260907-044903-636906-892021
2026-09-07T
04:49:16+0000
2.221 km
极远距离
2.035242E-6 低风险 0.41